FW1746 Weather Reports


time (UTC)temp
C
wind
direction
speed
KPH
gust
KPH
rain 1hr
cm
rain 24hr
cm
rain mn
cm
humidity
%
barometer
mb
20260507224510 4 221 1.6 4.8 0.00 0.00 0.00 91 1019.7
20260507223007 4 206 1.6 4.8 0.00 0.00 0.00 91 1019.8
20260507221505 4 221 3.2 4.8 0.00 0.00 0.00 91 1019.8
20260507220055 4 188 3.2 6.4 0.00 0.00 0.00 90 1019.8
20260507214554 5 198 3.2 6.4 0.00 0.00 0.00 89 1019.8
20260507213052 5 169 1.6 4.8 0.00 0.00 0.00 89 1019.7
20260507211551 5 170 3.2 4.8 0.00 0.00 0.00 89 1019.7
20260507210119 5 155 1.6 3.2 0.00 0.00 0.00 88 1019.7
20260507204600 6 135 1.6 3.2 0.00 0.00 0.00 87 1019.5
20260507203057 6 137 1.6 3.2 0.00 0.00 0.00 86 1019.5
20260507201549 6 136 1.6 4.8 0.00 0.00 0.00 85 1019.3
20260507200052 7 136 1.6 4.8 0.00 0.00 0.00 84 1019.3
20260507194536 7 136 0.0 3.2 0.00 0.00 0.00 83 1019.2
20260507193100 7 137 0.0 1.6 0.00 0.00 0.00 82 1019.0
20260507191530 8 137 0.0 1.6 0.00 0.00 0.00 80 1018.9
20260507190034 8 136 0.0 0.0 0.00 0.00 0.00 79 1018.9
20260507184528 8 137 0.0 3.2 0.00 0.00 0.00 79 1018.8
20260507183036 9 136 0.0 4.8 0.00 0.00 0.00 79 1018.8
20260507181525 9 136 1.6 8.0 0.00 0.00 0.00 78 1018.7
20260507180019 10 133 1.6 6.4 0.00 0.00 0.00 77 1018.6
20260507174519 10 134 4.8 8.0 0.00 0.00 0.00 76 1018.6
20260507173019 10 138 4.8 8.0 0.00 0.00 0.00 73 1018.5
20260507171510 11 130 4.8 8.0 0.00 0.00 0.00 71 1018.4
20260507170010 11 137 3.2 8.0 0.00 0.00 0.00 70 1018.3
20260507164508 11 143 3.2 11.3 0.00 0.00 0.00 71 1018.3
20260507163005 11 128 6.4 12.9 0.00 0.00 0.00 70 1018.3
20260507161504 11 141 9.7 14.5 0.00 0.00 0.00 67 1018.4
20260507160004 12 130 8.0 14.5 0.00 0.00 0.00 63 1018.4
20260507154502 13 68 3.2 9.7 0.00 0.00 0.00 62 1018.3
20260507153002 13 68 4.8 8.0 0.00 0.00 0.00 61 1018.3
20260507151600 13 51 6.4 14.5 0.00 0.00 0.00 60 1018.3
20260507150100 13 53 4.8 9.7 0.00 0.00 0.00 59 1018.4
20260507144605 13 58 4.8 11.3 0.00 0.00 0.00 60 1018.3
20260507143101 13 59 4.8 8.0 0.00 0.00 0.00 59 1018.4
20260507141618 13 155 1.6 11.3 0.00 0.00 0.00 60 1018.4
20260507140100 13 88 6.4 12.9 0.00 0.00 0.00 60 1018.4
20260507134601 13 152 0.0 12.9 0.00 0.00 0.00 60 1018.4
20260507133050 13 75 1.6 12.9 0.00 0.00 0.00 59 1018.5
20260507131550 13 74 1.6 9.7 0.00 0.00 0.00 55 1018.4
20260507130056 13 61 6.4 16.1 0.00 0.00 0.00 57 1018.4
20260507124554 13 48 6.4 16.1 0.00 0.00 0.00 57 1018.4
20260507123054 13 79 6.4 14.5 0.00 0.00 0.00 56 1018.3
20260507121551 13 51 8.0 14.5 0.00 0.00 0.00 56 1018.3
20260507120038 13 57 6.4 11.3 0.00 0.00 0.00 55 1018.3
20260507114536 12 57 8.0 14.5 0.00 0.00 0.00 56 1018.2
20260507113034 12 94 8.0 16.1 0.00 0.00 0.00 58 1018.3
20260507111537 12 55 9.7 19.3 0.00 0.00 0.00 58 1018.3
20260507110035 12 54 11.3 17.7 0.00 0.00 0.00 57 1018.3
20260507104534 12 60 9.7 19.3 0.00 0.00 0.00 57 1018.2
20260507103035 11 86 9.7 17.7 0.00 0.00 0.00 59 1018.1
20260507101532 11 55 12.9 20.9 0.00 0.00 0.00 59 1018.1
20260507100047 11 42 11.3 20.9 0.00 0.00 0.00 58 1017.9
20260507094547 11 62 16.1 22.5 0.00 0.00 0.00 57 1017.8
20260507093046 10 70 17.7 22.5 0.00 0.00 0.00 58 1017.8
20260507091546 10 72 16.1 24.1 0.00 0.00 0.00 56 1017.7
20260507090045 10 61 16.1 22.5 0.00 0.00 0.00 54 1017.7
20260507084546 10 71 16.1 22.5 0.00 0.00 0.00 52 1017.7
20260507083047 10 64 16.1 22.5 0.00 0.00 0.00 49 1017.6
20260507081543 10 71 11.3 22.5 0.00 0.00 0.00 51 1017.5
20260507080039 10 65 6.4 20.9 0.00 0.00 0.00 56 1017.3
20260507074535 10 60 11.3 17.7 0.00 0.00 0.00 50 1017.1
20260507073034 9 61 11.3 19.3 0.00 0.00 0.00 49 1017.1
20260507071533 8 57 6.4 9.7 0.00 0.00 0.00 51 1017.1
20260507070030 8 34 8.0 17.7 0.00 0.00 0.00 46 1017.0
20260507064529 8 38 9.7 17.7 0.00 0.00 0.00 48 1016.8
20260507063031 7 37 8.0 17.7 0.00 0.00 0.00 50 1016.8
20260507061529 6 44 8.0 17.7 0.00 0.00 0.00 54 1016.8
20260507060026 6 43 3.2 8.0 0.00 0.00 0.00 56 1016.7
20260507054524 5 17 1.6 8.0 0.00 0.00 0.00 58 1016.6
20260507053024 5 10 3.2 8.0 0.00 0.00 0.00 59 1016.5
20260507051522 3 22 4.8 14.5 0.00 0.00 0.00 63 1016.4
20260507050036 2 19 3.2 9.7 0.00 0.00 0.00 67 1016.3
20260507044529 2 278 1.6 8.0 0.00 0.00 0.00 70 1016.2
20260507043027 1 287 1.6 8.0 0.00 0.00 0.00 71 1016.1
20260507041542 1 268 3.2 6.4 0.00 0.00 0.00 71 1016.0
20260507040016 1 360 1.6 6.4 0.00 0.00 0.00 70 1015.9
20260507034515 1 268 1.6 6.4 0.00 0.00 0.00 70 1015.7
20260507033014 1 264 1.6 6.4 0.00 0.00 0.00 69 1015.6
20260507031511 1 5 1.6 4.8 0.00 0.00 0.00 69 1015.5
20260507030012 2 5 1.6 9.7 0.00 0.00 0.00 69 1015.4
20260507024510 2 265 1.6 8.0 0.00 0.00 0.00 69 1015.4
20260507023008 2 268 1.6 4.8 0.00 0.00 0.00 67 1015.2
20260507021505 2 36 3.2 8.0 0.00 0.00 0.00 64 1015.2
20260507020006 2 11 0.0 3.2 0.00 0.00 0.00 63 1015.1
20260507014510 3 11 0.0 3.2 0.00 0.00 0.00 62 1015.0
20260507013115 3 12 0.0 4.8 0.00 0.00 0.00 61 1014.9
20260507011557 4 290 1.6 3.2 0.00 0.00 0.00 59 1014.8
20260507010003 4 9 1.6 8.0 0.00 0.00 0.00 57 1014.7
20260507004600 4 247 1.6 14.5 0.00 0.00 0.00 55 1014.7
20260507003059 4 296 1.6 11.3 0.00 0.00 0.00 55 1014.6
20260507001620 5 5 1.6 8.0 0.00 0.00 0.00 55 1014.5
20260507000042 5 242 1.6 8.0 0.00 0.00 0.00 55 1014.4
20260506234539 5 244 4.8 11.3 0.00 0.00 0.00 52 1014.3
20260506233043 5 246 4.8 11.3 0.00 0.00 0.00 51 1014.3
20260506231540 5 262 3.2 9.7 0.00 0.00 0.00 51 1014.2
20260506230044 6 264 4.8 16.1 0.00 0.00 0.00 51 1014.2